Flag for U.S.A. Weather past 2 weeks in Helena, Montana, U.S.A.

Now
78 °F

Sunny.


Feels Like: 78 °F
Forecast: 50 / 84 °F
Wind: 15 mph from Northwest

Location: Helena Regional Airport

Current Time: Aug 31, 2015 at 6:41:39 PM

Latest Report: Aug 31, 2015 at 5:53 PM


Visibility: 10 mi

Pressure: 29.86 "Hg (25.92 "Hg at 1239m altitude)

Humidity: 23%

Dew point: 37 °F

Location of HelenaLocation

Historic Weather in Helena — Graph

°F

Helena temperature yesterday

Maximum temperature yesterday: 78 °F (at 2:53 PM)
Minimum temperature yesterday: 55 °F (at 11:53 PM)
Average temperature yesterday: 67 °F

Past Weeks' High & Low Weather Summary

 TemperatureHumidityPressure
High93 °F (Aug 25, 4:53 PM)82% (Aug 22, 1:53 AM)30.34 "Hg (Aug 22, 1:53 AM)
Low42 °F (Aug 23, 5:53 AM)11% (Aug 26, 4:53 PM)29.62 "Hg (Aug 21, 12:53 PM)
Average67 °F41%29.98 "Hg
* Reported Aug 16 4:53 PM — Aug 31 4:53 PM, Helena, Weather by CustomWeather, © 2015

Note: Actual official high and low records may vary slightly from our data, if they occured in-between our weather recording intervals... More about our weather records

Advertising

Helena weather history for previous 24 hours

 ConditionsComfort  
Time TempWeatherWind HumidityBarometerVisibility
4:53 PM
Mon, Aug 31
80 °FSunny.18 mph20%29.86 "Hg10 mi
3:53 PM80 °FSunny.14 mph20%29.87 "Hg10 mi
2:53 PM76 °FSunny.12 mph23%29.90 "Hg10 mi
1:53 PM76 °FSunny.7 mph22%29.93 "Hg10 mi
12:53 PM73 °FSunny.13 mph24%29.97 "Hg10 mi
11:53 AM69 °FSunny.7 mph29%30.01 "Hg10 mi
10:53 AM67 °FSunny.10 mph30%30.02 "Hg10 mi
9:53 AM64 °FSunny.15 mph32%30.02 "Hg10 mi
8:53 AM61 °FSunny.14 mph35%30.03 "Hg10 mi
7:53 AM58 °FSunny.15 mph38%30.01 "Hg10 mi
6:53 AM56 °FClear.7 mph42%30.01 "Hg10 mi
5:53 AM55 °FClear.6 mph44%30.00 "Hg10 mi
4:53 AM55 °FClear.10 mph45%29.98 "Hg10 mi
3:53 AM53 °FClear.10 mph52%29.99 "Hg10 mi
2:53 AM53 °FClear.3 mph52%29.99 "Hg10 mi
1:53 AM55 °FClear.9 mph51%30.00 "Hg10 mi
12:53 AM53 °FClear.8 mph59%30.01 "Hg10 mi
11:53 PM
Sun, Aug 30
55 °FClear.7 mph55%29.99 "Hg10 mi
10:53 PM56 °FPassing clouds.9 mph53%29.99 "Hg10 mi
9:53 PM58 °FClear.16 mph50%29.98 "Hg10 mi
8:53 PM61 °FSunny.25 mph42%29.92 "Hg10 mi
7:53 PM67 °FSunny.12 mph37%29.83 "Hg7 mi
6:53 PM68 °FPartly sunny.7 mph35%29.83 "Hg7 mi
Weather by CustomWeather, © 2015

See weather overviewHow to use our weather pages